Location: Newark
(49.8969°N, 3.3422°E)
Time: 15:15:50
(UTC+00:00)

A-11 Canister half - Pass Details

Date: 04 February 2020
Orbit: 1517 x 1683 km, 47.2° (Epoch: 17 February)

Event Time Altitude Azimuth Distance (km) Brightness Sun altitude
Rises 20:33:20 0° 224° (SW) 4,812 11.9 -36.6°
Reaches altitude 10° 20:36:36 10° 219° (SW) 3,805 11.2 -37.1°
Enters shadow 20:41:36 32° 201° (SSW) 2,453 9.9 -37.8°
Maximum altitude 20:45:39 48° 149° (SSE) 1,950 - -38.4°
Drops below altitude 10° 20:54:28 10° 79° (E) 3,706 - -39.7°
Sets 20:57:36 0° 74° (ENE) 4,678 - -40.2°
